Elsenborn, Belgium

4:58 PM CET on December 14, 2017 (GMT +0100)
Elsenborn

Weather History for EBLB - October, 2012

Change the Weather History Date:

Wednesday, October 3, 2012

  Actual Average Record
Temperature  
Mean Temperature 51 °F -  
Max Temperature 53 °F 47 °F 71 °F (2011)
Min Temperature 49 °F 39 °F 32 °F (1996)
Degree Days  
Heating Degree Days 14    
Growing Degree Days 1 (Base 50)    
Moisture  
Dew Point 50 °F    
Average Humidity 94    
Maximum Humidity 100    
Minimum Humidity 84    
Precipitation  
Precipitation 0.71 in - - ()
Sea Level Pressure  
Sea Level Pressure 29.87 in    
Wind  
Wind Speed 10 mph ()    
Max Wind Speed 16 mph    
Max Gust Speed 25 mph    
Visibility 6.1 miles    
Events Rain    
Averages and records for this station are not official NWS values.
T = Trace of Precipitation, MM = Missing Value Source: Averaged Metar Reports

Daily Weather History Graph

Daily Weather History Graph

Search for Another Location

Airport or City:

Trip Planner

Search our weather history database for the weather conditions in past years. The results will help you decide how hot, cold, wet, or windy it might be!

Date:

Astronomy

Oct. 03, 2012 Rise Set
Actual Time 7:39 AM CEST 7:08 PM CEST
Civil Twilight 7:06 AM CEST 7:40 PM CEST
Nautical Twilight 6:28 AM CEST 8:18 PM CEST
Astronomical Twilight 5:49 AM CEST 8:57 PM CEST
Moon 8:24 PM CEST (10/3) 11:11 AM CEST (10/3)
Length of Visible Light 12h 34m
Length of Day
11h 29m
Waning Gibbous, 90% of the Moon is Illuminated
Oct 3
Waning Gibbous
Oct 8
Last Quarter
Oct 15
New
Oct 22
First Quarter
Oct 29
Full

Hourly Weather History & Observations

Time (CEST) Temp. Dew Point Humidity Pressure Visibility Wind Dir Wind Speed Gust Speed Precip Events Conditions
12:25 AM 50.0 °F 48.2 °F 94% 29.98 in 6.2 mi SSW 9.2 mph - N/A   Mostly Cloudy
12:28 AM 50.0 °F 48.2 °F 94% 29.98 in 6.2 mi SSW 9.2 mph - N/A   Scattered Clouds
12:38 AM 50.0 °F 48.2 °F 94% 29.98 in 6.2 mi SSW 10.4 mph - N/A   Mostly Cloudy
12:44 AM 50.0 °F 48.2 °F 94% 29.95 in 6.2 mi SSW 10.4 mph - N/A   Mostly Cloudy
1:25 AM 50.0 °F 50.0 °F 100% 29.95 in 6.2 mi SSW 9.2 mph - N/A   Mostly Cloudy
2:00 AM 51 °F 49 °F 88% 29.96 in 12 mi SSW 11.2 mph - -   Clear
2:25 AM 50.0 °F 48.2 °F 94% 29.95 in 6.2 mi SSW 10.4 mph - N/A   Mostly Cloudy
3:25 AM 51.8 °F 48.2 °F 88% 29.92 in 6.2 mi SSW 10.4 mph - N/A   Mostly Cloudy
3:44 AM 51.8 °F 48.2 °F 88% 29.92 in 6.2 mi SSW 11.5 mph - N/A   Mostly Cloudy
3:54 AM 51.8 °F 48.2 °F 88% 29.92 in 6.2 mi SSW 11.5 mph 23.0 mph N/A   Mostly Cloudy
4:19 AM 51.8 °F 48.2 °F 88% 29.92 in 6.2 mi SSW 11.5 mph - N/A   Mostly Cloudy
4:25 AM 50.0 °F 48.2 °F 94% 29.92 in 6.2 mi SSW 12.7 mph - N/A   Mostly Cloudy
5:00 AM 50 °F 48 °F 89% 29.91 in 15 mi SSW 11.2 mph - -   Scattered Clouds
5:04 AM 50.0 °F 48.2 °F 94% 29.92 in 6.2 mi SSW 10.4 mph - N/A   Mostly Cloudy
5:14 AM 50.0 °F 48.2 °F 94% 29.89 in 6.2 mi SSW 10.4 mph - N/A   Mostly Cloudy
5:25 AM 50.0 °F 48.2 °F 94% 29.89 in 6.2 mi SSW 11.5 mph - N/A   Mostly Cloudy
6:25 AM 51.8 °F 48.2 °F 88% 29.89 in 6.2 mi SSW 12.7 mph - N/A   Mostly Cloudy
7:25 AM 51.8 °F 48.2 °F 88% 29.89 in 6.2 mi SW 11.5 mph - N/A   Overcast
8:00 AM 51 °F 48 °F 86% 29.89 in 19 mi SW 13.4 mph - -   Mostly Cloudy
8:25 AM 50.0 °F 48.2 °F 94% 29.89 in 6.2 mi SSW 10.4 mph - N/A   Mostly Cloudy
9:25 AM 51.8 °F 48.2 °F 88% 29.89 in 6.2 mi SSW 13.8 mph - N/A   Mostly Cloudy
10:25 AM 51.8 °F 48.2 °F 88% 29.89 in 6.2 mi SSW 12.7 mph - N/A   Mostly Cloudy
11:00 AM 52 °F 49 °F 84% 29.88 in 19 mi SSW 13.4 mph - -   Mostly Cloudy
11:25 AM 51.8 °F 48.2 °F 88% 29.89 in 6.2 mi SSW 16.1 mph - N/A   Mostly Cloudy
12:25 PM 51.8 °F 48.2 °F 88% 29.89 in 6.2 mi SW 13.8 mph 25.3 mph N/A   Mostly Cloudy
1:14 PM 53.6 °F 50.0 °F 88% 29.89 in 6.2 mi SW 13.8 mph - N/A Rain Rain
1:25 PM 51.8 °F 50.0 °F 94% 29.89 in 3.7 mi SW 15.0 mph - N/A Rain Rain
1:49 PM 51.8 °F 50.0 °F 94% 29.89 in 5.6 mi SSW 12.7 mph - N/A   Mostly Cloudy
2:00 PM 52 °F 50 °F 92% 29.89 in 4 mi SSW 13.4 mph - - Rain Light Rain
2:25 PM 51.8 °F 50.0 °F 94% 29.89 in 5.6 mi SW 15.0 mph - N/A Rain Rain
3:25 PM 51.8 °F 50.0 °F 94% 29.89 in 6.2 mi SW 12.7 mph - N/A   Mostly Cloudy
4:14 PM 51.8 °F 51.8 °F 100% 29.89 in 6.2 mi SSW 10.4 mph - N/A   Mostly Cloudy
4:25 PM 51.8 °F 50.0 °F 94% 29.89 in 3.7 mi SW 10.4 mph - N/A   Mostly Cloudy
4:44 PM 51.8 °F 50.0 °F 94% 29.86 in 6.2 mi SW 8.1 mph - N/A Rain Light Rain Showers
5:00 PM 51 °F 51 °F 100% 29.87 in 4 mi SW 6.7 mph - - Rain Light Rain Showers
5:09 PM 51.8 °F 51.8 °F 100% 29.86 in - SW 8.1 mph - N/A   Mostly Cloudy
5:25 PM 51.8 °F 51.8 °F 100% 29.86 in 2.5 mi SW 8.1 mph - N/A   Mostly Cloudy
5:28 PM 51.8 °F 51.8 °F 100% 29.86 in - SSW 8.1 mph - N/A   Mostly Cloudy
6:09 PM 51.8 °F 50.0 °F 94% 29.83 in 3.1 mi SSW 9.2 mph - N/A   Mostly Cloudy
6:19 PM 51.8 °F 50.0 °F 94% 29.86 in 6.2 mi SW 8.1 mph - N/A   Mostly Cloudy
6:25 PM 51.8 °F 50.0 °F 94% 29.83 in 6.2 mi SW 8.1 mph - N/A   Mostly Cloudy
7:25 PM 51.8 °F 51.8 °F 100% 29.83 in 5.0 mi SSW 12.7 mph - N/A   Mostly Cloudy
7:45 PM 50.0 °F 50.0 °F 100% 29.83 in - West 9.2 mph - N/A   Mostly Cloudy
7:53 PM 50.0 °F 50.0 °F 100% 29.83 in 0.8 mi WSW 10.4 mph - N/A   Mostly Cloudy
7:59 PM 50.0 °F 50.0 °F 100% 29.83 in 1.1 mi WSW 10.4 mph - N/A   Mostly Cloudy
8:00 PM 50 °F 50 °F 100% 29.85 in 1 mi WSW 11.2 mph - - Rain Heavy Rain
8:05 PM 50.0 °F 50.0 °F 100% 29.83 in - SW 9.2 mph - N/A   Mostly Cloudy
8:11 PM 50.0 °F 50.0 °F 100% 29.83 in 3.1 mi SW 8.1 mph - N/A   Mostly Cloudy
8:19 PM 50.0 °F 50.0 °F 100% 29.83 in 6.2 mi SW 9.2 mph - N/A   Mostly Cloudy
8:25 PM 50.0 °F 50.0 °F 100% 29.83 in 3.7 mi SW 8.1 mph - N/A   Mostly Cloudy
8:58 PM 51.8 °F 51.8 °F 100% 29.83 in 2.2 mi SSW 10.4 mph - N/A   Mostly Cloudy
9:16 PM 51.8 °F 51.8 °F 100% 29.83 in - SW 8.1 mph - N/A   Mostly Cloudy
9:25 PM 51.8 °F 50.0 °F 94% 29.83 in 3.7 mi SW 10.4 mph - N/A   Mostly Cloudy
9:28 PM 51.8 °F 51.8 °F 100% 29.83 in 3.7 mi SW 10.4 mph - N/A   Mostly Cloudy
9:34 PM 51.8 °F 50.0 °F 94% 29.83 in 6.2 mi SW 11.5 mph - N/A   Mostly Cloudy
9:49 PM 51.8 °F 50.0 °F 94% 29.83 in 6.2 mi SW 11.5 mph - N/A   Mostly Cloudy
10:19 PM 51.8 °F 50.0 °F 94% 29.83 in 6.2 mi SW 15.0 mph - N/A   Mostly Cloudy
10:25 PM 51.8 °F 50.0 °F 94% 29.83 in 6.2 mi SSW 12.7 mph - N/A   Mostly Cloudy
10:31 PM 51.8 °F 50.0 °F 94% 29.83 in 6.2 mi SSW 12.7 mph - N/A   Mostly Cloudy
11:00 PM 51 °F 50 °F 97% 29.82 in 8 mi SW 13.4 mph - - Rain Light Rain
11:09 PM 51.8 °F 50.0 °F 94% 29.83 in 6.2 mi WSW 13.8 mph - N/A   Mostly Cloudy
11:15 PM 50.0 °F 50.0 °F 100% 29.80 in 6.2 mi SW 12.7 mph - N/A   Mostly Cloudy
11:25 PM 50.0 °F 50.0 °F 100% 29.80 in 6.2 mi SW 10.4 mph - N/A   Mostly Cloudy